FW1048 Weather Reports


Display with metric or nautical units.
time (UTC)temp
F
wind
direction
speed
MPH
gust
MPH
rain 1hr
in
rain 24hr
in
rain mn
in
humidity
%
barometer
mb
20260507025812 55 154 0.0 2.0 0.00 1.61 0.03 98 1010.8
20260507025313 55 153 0.0 3.0 0.00 1.61 0.03 98 1010.7
20260507023812 55 138 0.0 3.0 0.00 1.61 0.03 98 1010.7
20260507023312 55 138 0.0 3.0 0.00 1.61 0.03 98 1010.7
20260507022813 55 138 1.0 3.0 0.00 1.61 0.03 98 1010.5
20260507022312 55 138 1.0 2.0 0.00 1.61 0.03 98 1010.5
20260507021813 55 138 0.0 2.0 0.00 1.61 0.03 98 1010.6
20260507021312 55 138 0.0 1.0 0.00 1.61 0.03 98 1010.6
20260507015312 55 137 1.0 3.0 0.00 1.61 0.03 98 1010.6
20260507014812 55 122 0.0 2.0 0.01 1.61 0.03 98 1010.6
20260507014312 55 122 0.0 2.0 0.01 1.61 0.03 98 1010.7
20260507013812 55 122 0.0 0.0 0.01 1.61 0.03 98 1010.7
20260507013313 56 122 0.0 2.0 0.01 1.61 0.03 98 1010.6
20260507012813 56 122 1.0 3.0 0.01 1.61 0.03 98 1010.5
20260507011813 56 300 1.0 2.0 0.01 1.61 0.03 98 1010.4
20260507011312 55 299 0.0 2.0 0.01 1.62 0.03 98 1010.4
20260507010813 56 300 0.0 3.0 0.01 1.62 0.03 98 1010.4
20260507010312 56 300 1.0 3.0 0.01 1.63 0.03 98 1010.4
20260507005813 56 299 0.0 3.0 0.01 1.64 0.03 98 1010.4
20260507005312 56 299 1.0 2.0 0.01 1.64 0.03 98 1010.4
20260507004812 56 299 0.0 2.0 0.00 1.64 0.02 98 1010.4
20260507004312 56 299 1.0 2.0 0.00 1.65 0.02 98 1010.5
20260507003813 56 299 0.0 2.0 0.00 1.65 0.02 98 1010.5
20260507003312 56 299 0.0 3.0 0.00 1.65 0.02 98 1010.6
20260507002813 56 299 1.0 3.0 0.00 1.66 0.02 98 1010.7
20260507002312 56 167 1.0 3.0 0.00 1.66 0.02 98 1010.8
20260507001812 56 296 0.0 3.0 0.00 1.69 0.02 98 1010.8
20260507001312 55 296 1.0 3.0 0.00 1.69 0.02 98 1010.7
20260507000813 56 296 1.0 3.0 0.00 1.69 0.02 98 1010.7
20260507000314 56 296 1.0 3.0 0.00 1.69 0.02 98 1010.7
20260506235812 56 296 2.0 3.0 0.00 1.69 0.02 98 1010.7
20260506235313 55 296 0.0 3.0 0.00 1.69 0.02 98 1010.7
20260506234312 55 295 1.0 3.0 0.00 1.69 0.02 98 1010.9
20260506233812 55 295 1.0 3.0 0.00 1.69 0.02 98 1010.8
20260506233312 56 296 0.0 3.0 0.00 1.70 0.02 98 1010.9
20260506232812 56 272 1.0 3.0 0.00 1.71 0.02 98 1011.0
20260506232312 56 245 0.0 3.0 0.01 1.73 0.02 98 1011.0
20260506231812 56 245 2.0 3.0 0.02 1.76 0.02 98 1010.9
20260506231313 56 146 1.0 2.0 0.02 1.77 0.02 98 1010.9
20260506230812 56 146 0.0 1.0 0.02 1.80 0.02 98 1011.1
20260506230312 56 146 1.0 2.0 0.02 1.82 0.02 98 1011.0
20260506225812 56 146 1.0 2.0 0.02 1.84 0.02 98 1010.9
20260506225313 56 146 1.0 2.0 0.02 1.87 0.02 98 1010.9
20260506224812 56 146 0.0 2.0 0.02 1.87 0.02 98 1010.9
20260506224312 56 146 1.0 2.0 0.03 1.87 0.02 98 1010.8
20260506223812 56 145 1.0 2.0 0.03 1.87 0.02 98 1010.8
20260506222812 56 144 1.0 5.0 0.03 1.88 0.02 98 1010.8
20260506222312 56 354 2.0 5.0 0.02 1.87 0.02 98 1010.7
20260506221812 56 173 2.0 5.0 0.02 1.87 0.01 98 1010.7
20260506221312 56 264 1.0 3.0 0.01 1.86 0.00 98 1010.7
20260506220819 56 265 0.0 6.0 0.01 1.86 0.00 98 1010.7
20260506215312 56 272 1.0 2.0 0.03 1.86 1.86 98 1010.5
20260506214811 56 272 0.0 2.0 0.03 1.86 1.86 98 1010.7
20260506214312 56 272 1.0 2.0 0.03 1.86 1.86 98 1010.7
20260506213812 56 272 1.0 2.0 0.02 1.85 1.85 98 1010.6
20260506213312 56 246 0.0 2.0 0.02 1.85 1.85 98 1010.6
20260506212812 56 246 0.0 3.0 0.02 1.85 1.85 98 1010.6
20260506212312 56 246 1.0 3.0 0.02 1.86 1.85 98 1010.6
20260506211812 56 236 1.0 2.0 0.02 1.87 1.85 98 1010.6
20260506211312 57 236 0.0 2.0 0.02 1.87 1.85 98 1010.6
20260506210811 57 236 0.0 2.0 0.02 1.87 1.85 98 1010.7
20260506210312 57 235 1.0 3.0 0.02 1.86 1.84 98 1010.7
20260506205311 57 225 1.0 2.0 0.00 1.84 1.83 98 1010.9
20260506204812 57 225 0.0 2.0 0.00 1.84 1.83 98 1010.9
20260506203812 57 225 1.0 3.0 0.00 1.85 1.83 98 1010.9
20260506203312 57 217 2.0 5.0 0.00 1.85 1.83 98 1010.7
20260506202812 57 168 1.0 5.0 0.00 1.85 1.83 98 1010.7
20260506202312 57 274 1.0 2.0 0.02 1.85 1.83 98 1010.6
20260506201812 57 273 0.0 2.0 0.03 1.86 1.83 98 1010.5
20260506201312 57 274 1.0 2.0 0.06 1.87 1.83 98 1010.5
20260506200812 57 274 0.0 2.0 0.10 1.89 1.83 98 1010.5
20260506200312 57 274 0.0 2.0 0.17 1.89 1.83 98 1010.6
20260506195812 57 274 0.0 2.0 0.19 1.91 1.83 98 1010.6
20260506195312 57 274 0.0 3.0 0.24 1.93 1.83 98 1010.6
20260506193813 57 205 2.0 3.0 0.27 2.03 1.83 97 1010.3
20260506193311 57 94 1.0 3.0 0.28 2.06 1.83 97 1010.2
20260506192811 57 340 2.0 3.0 0.28 2.08 1.83 97 1010.1
20260506192312 57 340 1.0 3.0 0.26 2.09 1.81 97 1009.9
20260506191811 57 340 1.0 3.0 0.24 2.09 1.80 97 1009.7
20260506191312 57 313 3.0 3.0 0.21 2.09 1.76 97 1009.8
20260506190812 57 186 2.0 3.0 0.17 2.08 1.72 97 1009.8
20260506190312 57 255 1.0 2.0 0.10 2.03 1.65 97 1009.5
20260506185812 57 255 1.0 3.0 0.09 2.03 1.64 97 1009.5
20260506185312 57 255 2.0 3.0 0.04 2.00 1.59 97 1009.4
20260506184812 57 255 1.0 3.0 0.01 1.99 1.56 97 1009.4
20260506184311 57 255 1.0 3.0 0.01 2.03 1.56 97 1009.3
20260506183812 57 252 1.0 3.0 0.01 2.06 1.56 97 1009.3
20260506182811 57 252 0.0 3.0 0.02 2.09 1.55 97 1009.5
20260506182312 57 252 0.0 3.0 0.02 2.13 1.55 97 1009.5
20260506181812 57 142 1.0 3.0 0.04 2.15 1.55 97 1009.4
20260506181311 57 265 0.0 3.0 0.06 2.17 1.55 97 1009.4
20260506180812 57 250 1.0 3.0 0.09 2.18 1.55 97 1009.4
20260506175811 57 147 2.0 3.0 0.09 2.20 1.55 97 1009.6
20260506174811 57 126 2.0 5.0 0.09 2.22 1.55 97 1009.6
20260506174312 57 109 2.0 6.0 0.09 2.24 1.55 97 1009.6
20260506173811 58 157 3.0 9.0 0.09 2.25 1.55 97 1009.3
20260506173312 58 127 5.0 9.0 0.09 2.26 1.55 97 1009.2
20260506172812 58 123 2.0 3.0 0.07 2.25 1.54 97 1009.1
20260506172312 58 123 2.0 3.0 0.06 2.26 1.53 97 1009.0
20260506171811 58 75 1.0 3.0 0.05 2.25 1.51 97 1008.9
20260506171311 58 318 1.0 3.0 0.02 2.24 1.49 97 1008.8
20260506170811 57 317 1.0 3.0 0.00 2.21 1.46 97 1008.6
20260506170312 57 317 0.0 1.0 0.00 2.24 1.46 97 1008.6
20260506165811 57 317 0.0 3.0 0.00 2.24 1.46 97 1008.6
20260506165311 57 317 1.0 3.0 0.00 2.24 1.46 97 1008.7
20260506164812 57 317 2.0 3.0 0.00 2.26 1.46 97 1008.8
20260506164311 58 317 1.0 2.0 0.00 2.28 1.46 97 1008.8
20260506163811 58 317 0.0 1.0 0.00 2.29 1.46 97 1008.9
20260506163312 58 317 0.0 1.0 0.00 2.29 1.46 97 1009.0
20260506162812 58 317 0.0 3.0 0.00 2.30 1.46 97 1009.0
20260506162311 58 317 0.0 3.0 0.00 2.30 1.46 97 1009.0
20260506161311 58 22 1.0 3.0 0.00 2.31 1.46 97 1009.1
20260506160811 58 25 2.0 2.0 0.00 2.32 1.46 97 1009.1
20260506155811 58 25 1.0 2.0 0.00 2.33 1.46 97 1009.2
20260506155311 58 25 1.0 2.0 0.00 2.33 1.46 97 1009.3
20260506154812 58 25 1.0 3.0 0.00 2.34 1.46 97 1009.3
20260506154311 58 25 1.0 3.0 0.00 2.34 1.46 97 1009.4
20260506153813 58 25 1.0 3.0 0.00 2.34 1.46 97 1009.4
20260506153311 58 77 0.0 3.0 0.00 2.34 1.46 97 1009.5
20260506151811 57 329 2.0 3.0 0.00 2.35 1.46 97 1009.7
20260506151311 57 329 1.0 2.0 0.00 2.35 1.46 97 1009.7
20260506150812 57 329 0.0 2.0 0.00 2.35 1.46 97 1009.7
20260506150311 57 329 0.0 3.0 0.00 2.35 1.46 97 1009.7
20260506145811 57 329 1.0 3.0 0.00 2.35 1.46 97 1009.7
20260506144811 58 329 3.0 3.0 0.00 2.35 1.46 97 1009.8
20260506144312 58 324 1.0 6.0 0.00 2.35 1.46 97 1009.9
20260506143811 58 324 3.0 6.0 0.00 2.35 1.46 96 1009.9
20260506142811 58 299 1.0 3.0 0.01 2.36 1.46 96 1010.1
20260506142311 58 299 0.0 2.0 0.01 2.36 1.46 96 1010.1
20260506141811 58 299 0.0 3.0 0.01 2.36 1.46 96 1010.1
20260506141311 58 299 0.0 3.0 0.02 2.36 1.46 96 1010.1
20260506140811 58 299 0.0 3.0 0.03 2.37 1.46 96 1010.1
20260506140311 58 299 0.0 2.0 0.04 2.37 1.46 96 1010.2
20260506135811 58 299 0.0 2.0 0.06 2.37 1.46 96 1010.3
20260506135311 58 299 1.0 3.0 0.08 2.37 1.46 96 1010.3
20260506134311 58 26 1.0 2.0 0.12 2.38 1.46 96 1010.4
20260506133811 58 118 1.0 3.0 0.13 2.38 1.46 97 1010.4
20260506133311 58 118 0.0 5.0 0.13 2.38 1.46 97 1010.5
20260506132810 58 123 2.0 5.0 0.14 2.39 1.46 97 1010.5
20260506132311 58 179 2.0 7.0 0.16 2.39 1.46 97 1010.5
20260506131312 58 99 1.0 3.0 0.17 2.39 1.45 97 1010.5
20260506130810 58 267 1.0 2.0 0.18 2.37 1.43 97 1010.6
20260506130311 58 267 0.0 2.0 0.18 2.37 1.43 97 1010.5
20260506125811 58 267 0.0 2.0 0.17 2.35 1.41 97 1010.4
20260506125311 57 267 1.0 3.0 0.17 2.33 1.39 97 1010.5
20260506124811 57 267 0.0 3.0 0.17 2.31 1.36 97 1010.4
20260506124311 57 266 0.0 2.0 0.17 2.30 1.35 97 1010.5
20260506123811 57 266 0.0 3.0 0.17 2.28 1.33 97 1010.4
20260506123311 57 266 1.0 3.0 0.19 2.28 1.33 97 1010.4
20260506122811 57 266 2.0 3.0 0.19 2.28 1.31 97 1010.5
20260506121810 57 0 1.0 3.0 0.20 2.27 1.30 97 1010.7
20260506121311 57 140 2.0 3.0 0.18 2.25 1.28 98 1010.7
20260506120810 57 274 0.0 3.0 0.16 2.23 1.25 98 1010.7
20260506120311 57 266 1.0 3.0 0.15 2.23 1.24 98 1010.7
20260506115811 57 192 1.0 3.0 0.14 2.23 1.24 98 1010.8
20260506115310 58 64 1.0 3.0 0.13 2.22 1.22 98 1010.9
20260506114811 57 136 0.0 3.0 0.11 2.20 1.20 98 1010.7
20260506113811 57 172 0.0 1.0 0.08 2.17 1.16 98 1010.5
20260506113311 57 172 0.0 1.0 0.08 2.17 1.14 98 1010.5
20260506112810 57 172 0.0 2.0 0.07 2.16 1.13 98 1010.6
20260506112311 57 172 0.0 2.0 0.06 2.16 1.12 98 1010.7
20260506111811 57 172 1.0 2.0 0.06 2.15 1.10 98 1010.7
20260506111312 57 172 0.0 2.0 0.05 2.14 1.09 98 1010.7
20260506105811 57 172 1.0 3.0 0.05 2.17 1.09 98 1010.7
20260506105311 58 172 1.0 2.0 0.05 2.17 1.09 98 1010.8
20260506104811 58 172 1.0 1.0 0.04 2.16 1.09 98 1010.7
20260506104311 58 172 0.0 2.0 0.05 2.17 1.09 98 1010.7
20260506103811 58 172 1.0 2.0 0.04 2.16 1.08 98 1010.7
20260506103310 58 171 0.0 1.0 0.02 2.14 1.06 98 1010.8
20260506102810 58 171 0.0 1.0 0.02 2.13 1.06 98 1011.0
20260506102311 57 171 0.0 1.0 0.02 2.13 1.06 98 1011.1
20260506101811 58 171 0.0 1.0 0.02 2.13 1.05 98 1011.0
20260506101311 57 171 0.0 2.0 0.02 2.13 1.05 98 1011.2
20260506100811 57 171 0.0 2.0 0.02 2.13 1.05 98 1011.2
20260506100311 57 171 0.0 0.0 0.02 2.13 1.05 98 1011.1
20260506095810 57 171 0.0 0.0 0.03 2.13 1.05 98 1011.1
20260506095310 57 171 0.0 0.0 0.04 2.13 1.05 98 1011.2
20260506094810 57 171 0.0 0.0 0.06 2.13 1.05 98 1011.2
20260506094311 57 171 0.0 0.0 0.06 2.12 1.04 98 1011.2
20260506092811 57 171 0.0 2.0 0.13 2.12 1.04 98 1011.3
20260506092310 57 171 1.0 2.0 0.17 2.12 1.04 98 1011.3
20260506091810 56 171 0.0 1.0 0.21 2.11 1.03 98 1011.3
20260506091310 56 171 0.0 2.0 0.24 2.11 1.03 98 1011.3
20260506090811 56 171 0.0 3.0 0.28 2.11 1.03 98 1011.3
20260506090310 56 172 0.0 3.0 0.29 2.10 1.02 98 1011.3
20260506085810 56 240 1.0 3.0 0.31 2.09 1.02 98 1011.2
20260506085311 56 240 0.0 2.0 0.31 2.09 1.01 98 1011.4
20260506084810 56 105 0.0 2.0 0.30 2.07 0.99 98 1011.3
20260506084311 56 105 1.0 5.0 0.31 2.06 0.98 98 1011.5
20260506083810 55 105 0.0 5.0 0.30 2.05 0.97 98 1011.5
20260506083310 55 130 1.0 3.0 0.29 2.02 0.94 98 1011.3
20260506082811 55 119 1.0 3.0 0.28 1.99 0.91 98 1011.2
20260506082312 55 119 1.0 3.0 0.25 1.94 0.87 98 1011.3
20260506081811 55 133 2.0 3.0 0.23 1.90 0.82 98 1011.2
20260506081310 56 115 1.0 3.0 0.22 1.87 0.79 98 1011.1
20260506080310 56 165 1.0 3.0 0.22 1.81 0.73 98 1010.9
20260506073311 56 164 0.0 0.0 0.24 1.73 0.65 98 1011.3
20260506072810 56 164 0.0 0.0 0.24 1.71 0.63 98 1011.3
20260506072310 56 164 0.0 1.0 0.22 1.69 0.61 98 1011.3
20260506071810 56 164 0.0 1.0 0.20 1.67 0.59 98 1011.3
20260506071310 56 164 0.0 0.0 0.17 1.65 0.57 98 1011.3
20260506070810 56 164 0.0 3.0 0.14 1.61 0.54 98 1011.3
20260506070310 56 167 0.0 3.0 0.12 1.59 0.51 98 1011.3
20260506062310 56 153 0.0 2.0 0.00 1.47 0.39 98 1011.0
20260506061810 56 145 0.0 0.0 0.00 1.47 0.39 98 1011.1
20260506060811 56 145 0.0 2.0 0.00 1.47 0.39 98 1011.0
20260506060310 56 145 0.0 2.0 0.00 1.47 0.39 98 1011.0
20260506051310 54 148 0.0 0.0 0.00 1.47 0.39 98 1011.0
20260506050810 54 148 0.0 3.0 0.00 1.47 0.39 98 1011.0
20260506050310 54 147 0.0 3.0 0.00 1.47 0.39 98 1011.1
20260506043310 54 252 0.0 2.0 0.00 1.47 0.39 98 1010.8
20260506042810 54 252 1.0 2.0 0.00 1.47 0.39 98 1011.0
20260506042310 54 252 1.0 1.0 0.00 1.47 0.39 98 1011.1
20260506041809 54 252 0.0 1.0 0.00 1.47 0.39 98 1011.1
20260506040810 54 252 0.0 2.0 0.04 1.47 0.39 98 1011.2
20260506040310 54 252 1.0 2.0 0.06 1.47 0.39 98 1011.2
20260506035810 54 252 0.0 2.0 0.11 1.47 0.39 98 1011.2
20260506035310 54 252 0.0 1.0 0.12 1.47 0.39 98 1011.2
20260506034810 54 252 0.0 1.0 0.12 1.47 0.39 98 1011.2
20260506034310 54 252 0.0 0.0 0.12 1.47 0.39 98 1011.3
20260506033309 54 252 0.0 0.0 0.12 1.47 0.39 98 1011.2
20260506032810 54 252 0.0 0.0 0.12 1.47 0.39 98 1011.3
20260506032310 54 252 0.0 0.0 0.12 1.47 0.39 98 1011.3
20260506031810 54 252 0.0 1.0 0.12 1.47 0.39 98 1011.3
20260506030810 54 252 0.0 2.0 0.08 1.43 0.35 98 1011.3